Regional Weather Roundup
Issued by NWS

Home | Current Version | Previous Version | Graphics & Text | Print | Product List | Glossary Off
Versions: 1 2 3 4 5 6 7 8 9 10 11 12 13 14 15 16 17 18 19 20 21 22 23 24 25 26 27 28 29 30 31 32 33 34 35 36 37 38 39 40 41 42 43 44 45 46 47 48 49 50

000
ASUS43 KMKX 270700
RWRWI

WISCONSIN REGIONAL WEATHER ROUNDUP
NATIONAL WEATHER SERVICE MILWAUKEE/SULLIVAN WI
200 AM CDT WED JUL 27 2016

NOTE: "FAIR" INDICATES FEW OR NO CLOUDS BELOW 12,000 FEET WITH NO
SIGNIFICANT WEATHER AND/OR OBSTRUCTIONS TO VISIBILITY.

WIZ001-002-006>008-014>016-023>028-270800-
NORTHWEST WISCONSIN

CITY           SKY/WX    TMP DP  RH WIND       PRES   REMARKS
SUPERIOR ARPT  HVY RAIN  70  64  81 N3G18     29.95F
ASHLAND        CLOUDY    71  68  90 SW5       29.96F
HAYWARD        LGT RAIN  67  65  93 S5        29.98F
SIREN          CLOUDY    70  63  78 SE3       29.97F
CUMBERLAND     CLOUDY    64  63  94 CALM      30.00F
RICE LAKE      CLOUDY    68  65  89 CALM      30.01F
CHETEK         CLOUDY    69  66  92 CALM      30.00F
LADYSMITH      CLOUDY    66  63  89 CALM      30.03S
EAU CLAIRE     NOT AVBL
MENOMONIE      PTCLDY    71  67  88 CALM      30.00S
NEW RICHMOND   CLOUDY    69  65  86 SE3       29.98F
OSCEOLA        PTCLDY    67  67 100 CALM      30.00F
$$

WIZ003>005-009-010-017-018-270800-
NORTH CENTRAL WISCONSIN

CITY           SKY/WX    TMP DP  RH WIND       PRES   REMARKS
MANITOWISH WTR CLOUDY    68  68 100 E3        30.00F
ARBOR VITAE    TSTM      64  62  91 E3        30.04F
WOODRUFF       TSTM      64  62  91 E3        30.04F
RHINELANDER    LGT RAIN  66  59  78 N10G17    30.01F
EAGLE RIVER    HVY RAIN  63  61  93 W17G26    30.04R
LAND O LAKES   CLOUDY    65  65 100 SW14G21   30.06R
PHILLIPS       CLOUDY    66  66 100 CALM      30.00F
TOMAHAWK       MOCLDY    63  61  92 CALM      30.02F
MEDFORD        CLEAR     67  67 100 CALM      30.02S
MERRILL        PTCLDY    69  62  80 CALM      30.03R
$$

WIZ029-030-035-036-043>047-270800-
CENTRAL WISCONSIN

CITY           SKY/WX    TMP DP  RH WIND       PRES   REMARKS
WAUSAU         CLEAR     72  67  84 NW7       29.99S
MOSINEE        PTCLDY    72  68  88 W5        30.02R
MARSHFIELD     CLEAR     71  66  84 W3        30.01S
STEVENS POINT  CLEAR     73  65  78 SW6       30.01S
WAUPACA        CLOUDY    75  70  84 W5        29.99S
WAUTOMA        PTCLDY    69  67  93 CALM      30.00F
WISC RAPIDS    MOCLDY    71  65  81 SW5       30.01F
CAMP DOUGLAS   NOT AVBL
$$

WIZ011>013-019>022-031-037>040-048>050-270800-
NORTHEAST WISCONSIN

CITY           SKY/WX    TMP DP  RH WIND       PRES   REMARKS
ANTIGO         PTCLDY    71  65  81 NW13G20   30.03R
SHAWANO        CLEAR     75  67  76 W6        29.97S
OCONTO         CLEAR     71  71 100 CALM      29.95R
STURGEON BAY   MOCLDY    75  69  81 W8        29.96R
GREEN BAY      CLEAR     72  70  93 W7        29.96S
MANITOWOC      NOT AVBL
APPLETON       CLEAR     72  64  78 W7        29.98R
CLINTONVILLE   CLEAR     72  64  78 W5        29.98S
OSHKOSH        CLEAR     73  66  78 W5        29.98S
$$

WIZ032>034-041-042-053>061-270800-
SOUTHWEST WISCONSIN

CITY           SKY/WX    TMP DP  RH WIND       PRES   REMARKS
LA CROSSE      PTCLDY    72  70  93 CALM      29.99S
SPARTA         CLEAR     64  64  99 CALM      30.01F
VIROQUA        CLEAR     68  66  93 SW3       30.02F
BOSCOBEL       PTCLDY    66  65  96 CALM      30.01R FOG
PRAIRIE DU CHI CLEAR     68  65  91 CALM      30.01S
PLATTEVILLE    CLEAR     70  67  91 CALM      30.02S
$$

WIZ056-057-062-063-064-067-068-270800-
SOUTH CENTRAL WISCONSIN

CITY           SKY/WX    TMP DP  RH WIND       PRES   REMARKS
REEDSBURG      CLEAR     68  68 100 CALM      30.00F
BARABOO/DELLS  PTCLDY    68  63  84 CALM      30.01F
LONE ROCK      PTCLDY    65  64  97 CALM      30.00F
MINERAL POINT  CLEAR     70  66  88 CALM      30.03S
MADISON        CLEAR     66  64  93 MISG      30.00F
MIDDLETON      CLEAR     67  66  94 CALM      30.02S
WATERTOWN      CLEAR     67  66  99 CALM      30.01R
MONROE         CLEAR     70  63  78 W7        30.02S
JANESVILLE     CLEAR     68  68 100 CALM      30.00S
$$

WIZ051-052-058>065-066-070>072-270800-
SOUTHEAST WISCONSIN

CITY           SKY/WX    TMP DP  RH WIND       PRES   REMARKS
MILWAUKEE      CLEAR     75  65  70 CALM      29.99S
WAUKESHA       CLEAR     64  61  88 CALM      30.02R
MILWAUKEE/TIMM CLEAR     70  61  73 CALM      30.01R
RACINE         CLEAR     72  63  73 SW5       30.01S
BURLINGTON     CLEAR     63  62  97 CALM      30.00F
KENOSHA        CLEAR     66  62  87 S3        30.00F
FOND DU LAC    CLEAR     70  65  84 SW5       29.99F
SHEBOYGAN      CLEAR     68  64  87 SW6       29.98F
WEST BEND      CLEAR     64  63  94 SW3       30.00S
JUNEAU         CLEAR     67  65  94 CALM      30.02S
$$

LSZ147-162-270800-
LAKE SUPERIOR

STATION/POSITION TIME  TEMP    WIND        PRES    WAVE
                       AIR SEA DIR/SP/G            HT/PER
                 (UTC) (F)     (DEG/KT/KT) (MB)    (FT/S)
W MID LAKE BUOY  0550   66 62  350/ 10/ 10 1013.5R   1
DEVILS ISLAND    0600   71     290/ 10/ 10 1014.2S
PORT WING        0600   73     200/  3/  7 1014.6S
SAXON HARBOR     0600   75     200/  5/  9 1014.2S
$$

LMZ867-665-643>646-270800-
LAKE MICHIGAN

STATION/POSITION TIME  TEMP    WIND        PRES    WAVE
                       AIR SEA DIR/SP/G            HT/PER
                 (UTC) (F)     (DEG/KT/KT) (MB)    (FT/S)
CHAMBERS ISLAND  0600   74     220/  3/  4 1013.5S
S GREEN BAY BUOY 0600   76 74  230/ 10/ 12   N/A
N MID LAKE BUOY  0550   71 69  250/ 10/ 12 1012.5R   3/ 5
NORTHPORT PIER   0600   76     290/  7/ 12 1013.2S
SISTER BAY       0621   75     310/  6/  7   N/A
ALGOMA LAKESHORE 0613          250/  8/ 10   N/A
KEWAUNEE LAKESHO 0600   76     260/  6/  9 1013.7F
SHEBOYGAN LAKESH 0600   72     240/  4/  5 1015.2F
PORT WASHINGTON  0600   68     270/  3/  3 1016.3S
ATWATER BUOY     0600   62 57  160/  2/  2 1017.1F
MILWAUKEE LAKESH 0610   74     220/  2/  4   N/A
S MID LAKE BUOY  0550   75 76  190/  6/  6 1015.1F   0
KENOSHA   LAKESH 0600   74     240/  2/  4 1015.6F
$$

TC  - TEMPERATURE IN CELSIUS
VSB - VISIBILITY IN STATUTE MILES
WCI - WIND CHILL INDEX
HX  - HEAT INDEX




USA.gov is the U.S. government's official web portal to all federal, state and local government web resources and services.